Le nostre stazioni meteo in Italia

Pubblicità
Il mio iltempo24.it
Capo Bellavista, Italia (16550): Temperatura & dewpoint: 03.04.2020 19:00:00 - 09.04.2020 19:00:00 (CEST)Capo Bellavista, Italia (16550): velocità del vento: 03.04.2020 19:00:00 - 09.04.2020 19:00:00 (CEST)Capo Bellavista, Italia (16550): direzione del vento: 03.04.2020 19:00:00 - 09.04.2020 19:00:00 (CEST)Capo Bellavista, Italia (16550): reduced air pressure: 03.04.2020 19:00:00 - 09.04.2020 19:00:00 (CEST)Capo Bellavista, Italia (16550): visibility: 03.04.2020 19:00:00 - 09.04.2020 19:00:00 (CEST)Capo Bellavista, Italia (16550): ore di luce: 03.04.2020 19:00:00 - 09.04.2020 19:00:00 (CEST)
Data & Tempo tt [°C] td [°C] ff [km/h] ff [kn] dd ppp [hPa] vv [km] sd [min]
09.04.2020 19:00:00 15,8 13,1 5 3 SO 1020,9 16 6
09.04.2020 18:00:00 16,4 13,0 9 5 SE 1020,9 16 48
09.04.2020 17:00:00 17,6 12,5 15 8 SE 1020,8 20 60
09.04.2020 16:00:00 20,0 13,7 11 6 SE 1020,6 20 60
09.04.2020 15:00:00 20,8 14,0 16 9 SE 1021,4 25 60
09.04.2020 14:00:00 22,2 14,6 15 8 SE 1021,4 25 60
09.04.2020 13:00:00 22,4 13,2 16 9 SE 1021,3 20 60
09.04.2020 12:00:00 21,2 10,4 9 5 SSE 1021,7 20 60
09.04.2020 11:00:00 20,2 7,6 11 6 ESE 1021,6 20 60
09.04.2020 10:00:00 17,4 0,6 4 2 SO 1021,2 20 60
09.04.2020 09:00:00 12,8 -1,5 21 11 NO 1021,4 30 36
09.04.2020 08:00:00 12,2 -0,5 16 9 NO 1021,5 30 0
09.04.2020 07:00:00 12,6 -1,2 13 7 NNO 1021,5 25 -
09.04.2020 06:00:00 12,2 3,3 11 6 NO 1021,6 20 -
09.04.2020 05:00:00 12,2 3,8 13 7 NO 1022,0 20 -
09.04.2020 04:00:00 12,0 9,9 5 3 ONO 1022,2 20 -
09.04.2020 03:00:00 12,6 11,6 8 4 ESE 1022,5 20 -
09.04.2020 02:00:00 12,8 6,4 8 4 NNO 1023,0 20 -
09.04.2020 01:00:00 12,8 11,1 11 6 OSO 1023,1 20 -
09.04.2020 00:00:00 12,8 10,0 11 6 OSO 1023,1 20 -
08.04.2020 23:00:00 13,8 13,1 11 6 SO 1023,0 20 -
08.04.2020 22:00:00 14,0 13,0 13 7 SSO 1022,9 20 -
08.04.2020 21:00:00 13,8 12,1 15 8 SO 1022,6 20 -
08.04.2020 20:00:00 14,8 11,8 11 6 SO 1022,7 25 0
08.04.2020 19:00:00 16,2 9,2 4 2 S 1022,8 30 0
08.04.2020 18:00:00 17,0 11,7 8 4 S 1022,9 30 18
08.04.2020 17:00:00 19,0 11,7 11 6 SE 1023,1 25 60
08.04.2020 16:00:00 20,2 11,2 13 7 SE 1023,4 30 60
08.04.2020 15:00:00 21,2 10,1 11 6 ESE 1023,6 30 60
08.04.2020 14:00:00 21,2 5,5 16 9 SE 1024,0 30 60
08.04.2020 13:00:00 20,4 3,7 13 7 ESE 1024,5 30 60
08.04.2020 12:00:00 20,4 3,1 11 6 E 1024,5 30 60
08.04.2020 11:00:00 19,2 2,3 9 5 E 1024,5 30 60
08.04.2020 10:00:00 16,8 2,4 4 2 ESE 1024,7 30 60
08.04.2020 09:00:00 13,0 1,4 15 8 ONO 1025,0 30 24
08.04.2020 08:00:00 10,8 0,0 29 16 NO 1025,1 30 -
08.04.2020 07:00:00 11,0 4,5 24 13 NO 1025,1 30 -
08.04.2020 06:00:00 11,2 6,4 15 8 N 1028,9 30 -
08.04.2020 05:00:00 12,0 12,0 11 6 NNE 1025,6 30 -
08.04.2020 04:00:00 13,0 13,0 15 8 ENE 1026,0 30 -
08.04.2020 03:00:00 13,0 5,2 18 10 NNO 1025,5 30 -
08.04.2020 02:00:00 13,2 5,6 15 8 ONO 1025,5 30 -
08.04.2020 01:00:00 13,0 5,4 15 8 ONO 1025,5 30 -
08.04.2020 00:00:00 13,2 6,8 13 7 NO 1025,5 30 -
07.04.2020 23:00:00 13,4 7,2 15 8 ONO 1025,5 30 -
07.04.2020 22:00:00 14,8 5,9 15 8 SO 1025,1 30 -
07.04.2020 21:00:00 14,8 8,3 8 4 SSO 1024,9 30 -
07.04.2020 20:00:00 15,4 7,7 15 8 SSO 1024,8 30 18
07.04.2020 19:00:00 18,0 6,5 11 6 SSO 1024,7 30 60
07.04.2020 18:00:00 18,0 7,4 5 3 SSO 1024,9 30 60
07.04.2020 17:00:00 18,0 10,6 8 4 SSE 1024,9 30 60
07.04.2020 16:00:00 19,0 12,5 11 6 SSE 1025,7 30 60
07.04.2020 15:00:00 20,0 12,0 0 0 N 1025,7 30 60
07.04.2020 14:00:00 20,0 11,0 11 6 SE 1025,9 30 60
07.04.2020 13:00:00 21,4 5,3 11 6 SE 1025,8 25 60
07.04.2020 12:00:00 20,6 5,8 11 6 E 1025,8 25 60
07.04.2020 11:00:00 20,0 4,9 8 4 ENE 1025,8 30 60
07.04.2020 10:00:00 17,0 5,3 8 4 ENE 1025,2 30 60
07.04.2020 09:00:00 11,2 3,0 11 6 NO 1025,6 30 60
07.04.2020 08:00:00 11,0 4,6 15 8 NO 1025,4 30 18
07.04.2020 07:00:00 11,8 10,8 11 6 N 1025,4 30 -
07.04.2020 06:00:00 12,0 11,3 21 11 NE 1025,4 30 -
07.04.2020 05:00:00 12,0 5,9 11 6 N 1025,4 30 -
07.04.2020 04:00:00 12,0 8,7 9 5 N 1025,4 20 -
07.04.2020 03:00:00 12,0 11,7 18 10 ENE 1025,4 30 -
07.04.2020 02:00:00 12,0 6,7 13 7 N 1025,4 20 -
07.04.2020 01:00:00 12,0 8,4 21 11 SSO 1025,4 30 -
07.04.2020 00:00:00 12,2 9,0 9 5 NNO 1025,2 30 -
06.04.2020 23:00:00 12,4 11,4 15 8 NO 1025,1 30 -
06.04.2020 22:00:00 13,2 11,8 16 9 ENE 1024,2 30 -
06.04.2020 21:00:00 13,6 11,6 9 5 ENE 1023,8 30 -
06.04.2020 20:00:00 14,2 11,8 15 8 ENE 1023,2 30 -
06.04.2020 19:00:00 15,0 12,4 11 6 E 1023,0 30 0
06.04.2020 18:00:00 15,8 12,5 16 9 E 1022,9 30 0
06.04.2020 17:00:00 16,0 13,4 15 8 E 1022,8 30 18
06.04.2020 16:00:00 16,2 12,9 22 12 E 1022,6 30 30
06.04.2020 15:00:00 16,2 11,9 24 13 E 1022,6 30 36
06.04.2020 14:00:00 16,8 10,7 9 5 E 1022,6 30 36
06.04.2020 13:00:00 17,8 9,9 9 5 E 1022,5 30 48
06.04.2020 12:00:00 18,0 4,3 16 9 E 1022,4 30 48
06.04.2020 11:00:00 19,0 3,1 11 6 E 1021,0 30 60
06.04.2020 10:00:00 17,0 2,8 8 4 E 1020,9 30 60
06.04.2020 09:00:00 13,0 0,1 11 6 NO 1021,1 20 12
06.04.2020 08:00:00 11,8 0,6 18 10 NO 1020,8 20 -
06.04.2020 07:00:00 11,0 0,1 26 14 NO 1020,3 20 -
06.04.2020 06:00:00 12,0 -1,5 15 8 NO 1020,2 20 -
06.04.2020 05:00:00 11,8 -1,0 15 8 NO 1020,2 20 -
06.04.2020 04:00:00 12,2 0,9 26 14 NO 1020,2 20 -
06.04.2020 03:00:00 12,2 -1,7 24 13 ONO 1020,2 20 -
06.04.2020 02:00:00 12,2 0,0 22 12 ONO 1020,2 20 -
06.04.2020 01:00:00 12,0 2,2 22 12 NO 1020,2 20 -
06.04.2020 00:00:00 11,8 5,4 22 12 NO 1020,2 20 -
05.04.2020 23:00:00 11,8 7,3 26 14 NO 1020,2 20 -
05.04.2020 22:00:00 12,4 7,1 15 8 NO 1020,1 20 -
05.04.2020 21:00:00 13,2 7,4 26 14 NE 1019,1 20 -
05.04.2020 20:00:00 12,8 8,9 29 16 E 1019,1 20 24
05.04.2020 19:00:00 14,0 9,7 34 18 NE 1018,6 20 60
05.04.2020 18:00:00 14,2 9,2 37 20 NE 1018,2 20 60
05.04.2020 17:00:00 14,8 8,5 37 20 E 1018,0 20 60
05.04.2020 16:00:00 15,0 8,7 37 20 E 1018,2 20 60
05.04.2020 15:00:00 15,6 9,3 42 23 NE 1018,6 20 60
05.04.2020 14:00:00 16,0 9,0 41 22 ENE 1018,7 20 60
05.04.2020 13:00:00 16,2 8,7 41 22 ENE 1018,8 30 60
05.04.2020 12:00:00 16,2 8,2 48 26 NE 1018,9 30 60
05.04.2020 11:00:00 15,4 6,7 55 30 NE 1019,0 30 60
05.04.2020 10:00:00 15,0 4,1 52 28 NE 1018,8 30 60
05.04.2020 09:00:00 14,0 4,0 55 30 NNE 1018,9 30 60
05.04.2020 08:00:00 12,4 -0,1 34 18 N 1018,8 30 60
05.04.2020 07:00:00 12,0 -0,2 31 17 N 1018,3 30 -
05.04.2020 06:00:00 11,4 2,9 26 14 NO 1019,2 20 -
05.04.2020 05:00:00 11,6 3,6 22 12 NNO 1019,1 20 -
05.04.2020 04:00:00 11,8 4,5 22 12 NNO 1019,3 20 -
05.04.2020 03:00:00 12,0 4,2 26 14 N 1019,2 20 -
05.04.2020 02:00:00 12,2 3,7 26 14 NO 1019,1 20 -
05.04.2020 01:00:00 12,4 1,7 24 13 NNO 1019,1 20 -
05.04.2020 00:00:00 12,6 0,7 22 12 NNO 1019,0 20 -
04.04.2020 23:00:00 12,8 -0,8 24 13 N 1019,0 20 -
04.04.2020 22:00:00 13,2 -0,8 24 13 N 1018,2 20 -
04.04.2020 21:00:00 14,0 0,6 22 12 N 1017,9 20 -
04.04.2020 20:00:00 13,8 4,7 29 16 NNE 1017,1 30 0
04.04.2020 19:00:00 14,0 6,1 46 25 NE 1016,6 30 60
04.04.2020 18:00:00 14,0 7,3 57 31 NE 1015,9 30 60
04.04.2020 17:00:00 14,2 6,8 55 30 NE 1016,0 30 60
04.04.2020 16:00:00 14,6 8,3 54 29 NE 1016,0 30 60
04.04.2020 15:00:00 15,0 7,3 54 29 ENE 1016,0 30 60
04.04.2020 14:00:00 15,2 7,2 55 30 NE 1016,2 30 60
04.04.2020 13:00:00 16,0 9,2 42 23 ENE 1016,2 30 60
04.04.2020 12:00:00 15,8 6,2 42 23 NE 1016,1 30 60
04.04.2020 11:00:00 16,0 1,7 41 22 NE 1016,0 30 60
04.04.2020 10:00:00 16,2 0,7 18 10 NNE 1015,4 30 60
04.04.2020 09:00:00 14,8 -1,3 24 13 NNE 1014,8 30 60
04.04.2020 08:00:00 11,4 -4,3 18 10 N 1014,8 30 0
04.04.2020 07:00:00 10,2 -4,2 21 11 NO 1014,1 30 -
04.04.2020 06:00:00 10,2 -0,9 26 14 NO 1014,0 20 -
04.04.2020 05:00:00 9,4 2,9 24 13 ONO 1014,1 20 -
04.04.2020 04:00:00 11,2 9,6 11 6 N 1014,1 20 -
04.04.2020 03:00:00 11,2 9,6 15 8 NNO 1014,0 20 -
04.04.2020 02:00:00 11,2 9,6 15 8 NO 1014,0 20 -
04.04.2020 01:00:00 11,0 9,4 11 6 ONO 1014,1 20 -
04.04.2020 00:00:00 11,0 9,2 13 7 ONO 1014,0 20 -
03.04.2020 23:00:00 11,0 9,2 11 6 NO 1013,0 20 -
03.04.2020 22:00:00 11,2 9,6 11 6 NO 1013,0 20 -
03.04.2020 21:00:00 12,0 11,1 18 10 NE 1012,1 20 -
03.04.2020 20:00:00 12,0 10,1 16 9 ENE 1011,8 30 0
03.04.2020 19:00:00 12,2 8,9 9 5 NE 1011,3 30 42

tt = Temperatura
td = dewpoint
ff = velocità del vento
dd = direzione del vento
ppp = reduced air pressure
vv = visibility
sd = ore di luce

Stazioni seguenti

WeatherPro
AMSI
MeteoEarth